User: anonymous   Login
Location: Newark
(40.7360°N, 74.1730°W)
Time: 15:08:16
(UTC-04:00)
Language:

ISS - Orbit

View from above orbital plane
View from above orbital plane
View from above satellite
View from above satellite

Ground track
Ground track

The orbit data is extracted from the following two-line orbital elements,

1 25544U 98067A   15109.74965010  .00030394  00000-0  43428-3 0  9991
2 25544 051.6473 015.9684 0005678 234.4934 157.7936 15.55961488938949
Epoch (UTC): 19 April 2015 17:59:29
Eccentricity: 0.0005678
inclination: 51.6473°
perigee height: 395 km
apogee height: 403 km
right ascension of ascending node: 15.9684°
argument of perigee: 234.4934°
revolutions per day: 15.55961488
mean anomaly at epoch: 157.7936°
orbit number at epoch: 93894

The dashed part of the orbit path shows where the satellite is in the earth's shadow,  

DLR